Weather in Sharm-El-Sheikh

Egypt     27°57′30″N   34°21′43″E
temp.,
°C
wind,
m/s
gust,
m/s
humid.,
%
clouds,
%
prec.,
mm/h
press.,
hPa
HPBL,
m
6 march, sat
sat623:00+14n23300 0.0 102228
02:00+13n22270 0.0 102130
05:00+11n23360 0.0 102031
08:00+19n12200 0.0 1021187
11:00+23e22200 0.0 1020768
14:00+24e32230 0.0 1017823
17:00+22se11260 0.0 1017313
20:00+17nw22350 0.0 101823
7 march, sun
sun723:00+15n12250 0.0 101823
02:00+14n12230 0.0 101623
05:00+13nnw11360 0.0 101527
08:00+21nnw01190 0.0 1016129
11:00+25se21180 0.0 1015678
14:00+26e32230 0.0 1012752
17:00+24e12290 0.0 1012374
20:00+18n12450 0.0 101426
8 march, mon
mon823:00+15nne01430 0.0 101423
02:00+14e00490 0.0 101323
05:00+12ene01550 0.0 101329
08:00+20ene11280 0.0 1014174
11:00+24ese21230 0.0 1014700
14:00+25e23210 0.0 10121015
17:00+23ne23250 0.0 1012441
20:00+18nnw233219 0.0 101435
9 march, tue
tue923:00+16n123242 0.0 101423
02:00+14n112961 0.0 101427
05:00+13n11340 0.0 101428
08:00+21ne12180 0.0 1015159
11:00+26ese21174 0.0 1015590
14:00+27se22225 0.0 1013820
17:00+26sse112217 0.0 1012201
20:00+19nnw113313 0.0 101423
10 march, wed
wed1023:00+19nne122924 0.0 101423
02:00+19n222619 0.0 101224
05:00+17nnw122516 0.0 101223
08:00+26wsw001511 0.0 101387
11:00+30sse34120 0.0 1013840
14:00+31ssw551015 0.0 10101182
17:00+28se221453 0.0 1010137
20:00+20sw112227 0.0 101023